Probability
0 0 0 0 0 0 0 0 0 0 0 0 0 0 0 0 0 0 0 0 0 0 0 0 0 0 0 0 0 0 0 0 3 3 3 3 6 6
0 0 0 3 0 0 0 0 0 0 0 0 0 3 0 0 0 0 0 0 0 0 0 0 0 0 0 0 0 0 0 0 3 0 3 3 6 6
0 0 0 0 0 0 0 0 0 0 0 0 0 0 0 0 0 0 0 0 0 0 0 0 0 0 0 0 0 0 0 0 0 0 3 0 3 3
0 0 0 0 3 3 0 0 0 0 0 0 0 0 0 0 0 0 0 0 0 0 0 0 0 0 0 0 0 0 0 0 0 0 0 0 3 3
0 0 0 0 3 0 3 0 0 0 0 3 0 0 0 0 0 0 0 0 0 0 0 0 0 0 0 0 0 0 0 0 0 0 0 0 3 3
0 0 0 0 0 0 0 3 3 3 0 0 0 0 0 0 0 0 0 0 0 0 0 0 0 0 0 0 0 0 0 0 0 0 0 0 0 0
0 0 0 0 0 0 0 3 0 0 0 0 0 0 0 0 0 0 0 0 0 0 0 0 0 0 0 0 0 0 0 0 0 0 0 0 0 0
0 0 0 0 0 0 0 0 0 0 0 0 0 0 0 0 0 0 0 0 0 0 0 0 0 0 0 0 0 0 0 0 0 0 0 0 0 0
0 0 0 0 0 0 0 0 0 0 0 0 0 0 0 0 0 0 0 0 0 0 0 0 0 0 3 0 0 0 0 0 0 0 0 0 0 0
0 0 0 0 0 0 0 0 0 0 0 0 0 0 0 0 0 0 0 0 0 0 0 0 0 0 0 0 0 0 0 0 0 0 0 0 0 0
0 0 0 0 0 0 0 0 0 0 0 0 0 0 0 0 0 0 0 0 0 0 0 0 0 0 0 0 0 0 0 0 0 0 0 0 0 0
0 0 0 0 0 0 0 0 0 0 0 0 0 0 0 0 0 0 0 0 0 0 0 0 0 0 0 0 0 0 0 0 0 0 0 0 0 0
0 0 0 0 0 0 0 0 0 0 0 0 0 0 0 0 0 0 0 0 0 0 0 0 0 0 0 0 0 0 0 0 0 0 0 0 0 0
0 0 0 0 0 0 0 0 0 0 0 0 0 0 0 0 0 0 0 0 0 0 0 0 0 0 0 0 0 0 0 0 0 0 0 0 0 0
0 0 0 0 0 0 0 0 0 0 0 0 0 0 0 0 0 0 0 0 0 0 0 0 0 0 0 0 0 0 0 0 0 0 0 0 0 0
0 0 0 0 0 0 0 0 0 0 0 0 0 0 0 0 0 0 0 0 0 0 0 0 0 0 0 0 0 0 0 0 0 0 0 0 0 0
0 0 0 0 0 0 0 0 0 0 0 0 0 0 0 0 0 0 0 0 0 0 0 0 0 0 0 0 0 0 0 0 0 0 0 0 0 0
0 0 0 0 0 0 0 0 0 0 0 0 0 0 0 0 0 0 0 0 0 0 0 0 0 0 0 0 0 0 0 0 0 0 0 0 0 0
0 0 0 0 0 0 0 0 0 0 0 0 0 0 0 0 0 0 0 0 0 0 0 0 0 0 0 0 0 0 0 0 0 0 0 0 0 0
0 0 0 0 0 0 0 0 0 0 0 0 0 0 0 0 0 0 0 0 0 0 0 0 0 0 0 0 0 0 0 0 0 0 0 0 0 0
0 0 0 0 0 0 0 0 0 0 0 0 0 0 0 0 0 0 0 0 0 0 0 0 0 0 0 0 0 0 0 0 0 0 0 0 0 0
0 0 0 0 0 0 0 0 0 0 0 0 0 0 0 0 0 0 0 0 0 0 0 0 0 0 0 0 0 0 0 0 0 0 0 0 0 0
0 0 0 0 0 0 0 0 0 0 0 0 0 0 0 0 0 0 0 0 0 0 0 0 0 0 0 0 0 0 0 0 0 0 0 0 0 0
Height
5781 5779 5778 5776 5775 5773 5772 5771 5770 5769 5768 5766 5764 5763 5762 5761 5760 5760 5759 5759 5759 5759 5759 5760 5761 5761 5762 5763 5764 5765 5766 5768 5769 5770 5771 5773 5774 5775
5775 5774 5772 5770 5769 5768 5766 5764 5763 5762 5761 5759 5758 5757 5756 5755 5754 5753 5753 5753 5753 5753 5753 5754 5754 5755 5756 5757 5758 5759 5760 5762 5763 5764 5765 5767 5768 5769
5770 5768 5766 5764 5763 5761 5760 5758 5756 5755 5754 5753 5751 5750 5749 5748 5748 5747 5746 5746 5746 5746 5746 5747 5747 5748 5749 5750 5751 5753 5754 5755 5756 5757 5759 5760 5762 5763
5764 5762 5760 5758 5757 5755 5753 5752 5750 5748 5747 5746 5744 5743 5742 5741 5741 5740 5740 5739 5739 5739 5739 5739 5740 5741 5742 5743 5744 5746 5748 5749 5750 5752 5753 5754 5756 5756
5757 5756 5754 5752 5750 5748 5746 5744 5743 5741 5740 5739 5737 5736 5735 5734 5734 5733 5733 5732 5732 5732 5732 5732 5733 5734 5734 5736 5737 5739 5741 5742 5744 5745 5746 5747 5749 5750
5751 5749 5747 5745 5743 5741 5740 5738 5736 5734 5733 5732 5730 5729 5728 5727 5727 5726 5726 5726 5725 5725 5726 5726 5727 5727 5728 5729 5730 5732 5733 5734 5736 5738 5739 5740 5741 5742
5745 5743 5741 5739 5736 5734 5733 5731 5729 5727 5725 5724 5723 5722 5721 5720 5720 5720 5719 5719 5719 5719 5720 5720 5720 5721 5721 5722 5723 5724 5725 5727 5728 5730 5731 5732 5734 5735
5738 5736 5734 5732 5729 5727 5725 5723 5721 5719 5718 5717 5716 5715 5714 5713 5713 5713 5713 5713 5714 5714 5713 5714 5713 5714 5715 5715 5716 5717 5718 5719 5721 5722 5724 5725 5726 5727
5731 5728 5726 5724 5722 5720 5718 5715 5714 5712 5711 5710 5709 5708 5708 5708 5707 5708 5707 5707 5707 5707 5707 5708 5708 5708 5708 5709 5709 5710 5711 5712 5714 5715 5716 5717 5718 5719
5723 5721 5719 5717 5715 5713 5711 5709 5707 5705 5704 5704 5703 5703 5702 5702 5702 5702 5701 5701 5701 5701 5701 5702 5701 5701 5702 5702 5702 5703 5704 5705 5706 5707 5708 5709 5710 5711
5716 5714 5712 5710 5708 5706 5704 5703 5701 5700 5698 5698 5697 5697 5696 5696 5695 5695 5695 5695 5695 5695 5695 5695 5695 5695 5695 5695 5695 5696 5696 5697 5698 5699 5700 5701 5702 5703
5709 5707 5705 5703 5701 5700 5699 5697 5696 5694 5693 5693 5692 5691 5690 5689 5689 5689 5688 5688 5688 5688 5688 5688 5688 5688 5688 5688 5688 5688 5689 5689 5690 5691 5692 5692 5693 5694
5701 5700 5698 5696 5695 5694 5692 5691 5690 5689 5688 5687 5686 5685 5683 5682 5682 5681 5681 5681 5681 5681 5681 5681 5681 5680 5680 5680 5680 5680 5681 5681 5681 5682 5683 5683 5684 5685
5694 5693 5691 5690 5689 5687 5686 5685 5684 5683 5682 5680 5679 5678 5677 5676 5675 5674 5673 5673 5673 5673 5673 5673 5673 5672 5672 5672 5672 5672 5672 5672 5673 5673 5674 5674 5675 5676
5687 5686 5684 5683 5682 5681 5680 5679 5678 5676 5675 5674 5672 5671 5670 5669 5668 5667 5666 5666 5665 5665 5665 5664 5664 5664 5664 5663 5663 5663 5663 5664 5664 5665 5665 5665 5666 5667
5680 5678 5677 5676 5675 5674 5673 5672 5671 5669 5668 5667 5665 5664 5663 5662 5661 5660 5659 5658 5658 5657 5656 5656 5655 5655 5655 5654 5654 5654 5654 5655 5655 5655 5656 5656 5657 5657
5672 5671 5670 5669 5668 5667 5666 5664 5663 5662 5660 5659 5658 5657 5655 5654 5653 5652 5651 5651 5650 5649 5648 5647 5646 5645 5645 5645 5644 5644 5644 5645 5645 5646 5647 5647 5648 5648
5665 5663 5662 5661 5660 5659 5658 5656 5655 5654 5653 5652 5651 5649 5648 5647 5646 5644 5643 5643 5642 5641 5639 5638 5638 5637 5636 5636 5635 5635 5635 5635 5635 5636 5637 5638 5639 5639
5657 5656 5655 5653 5652 5651 5650 5649 5648 5646 5645 5644 5643 5642 5641 5639 5638 5637 5635 5634 5633 5632 5631 5630 5629 5628 5628 5627 5626 5625 5626 5626 5626 5626 5627 5628 5629 5630
5650 5648 5647 5646 5644 5643 5642 5641 5640 5639 5637 5636 5635 5634 5633 5631 5630 5629 5627 5626 5625 5624 5622 5621 5620 5619 5619 5618 5617 5617 5616 5616 5616 5617 5617 5618 5619 5619
5642 5640 5639 5638 5637 5635 5634 5633 5632 5631 5629 5628 5627 5626 5625 5623 5622 5621 5619 5618 5616 5615 5614 5613 5612 5611 5609 5609 5609 5608 5608 5607 5606 5606 5607 5607 5608 5609
5634 5632 5631 5630 5629 5627 5626 5625 5624 5623 5621 5620 5619 5618 5617 5615 5614 5612 5611 5610 5608 5607 5606 5604 5603 5602 5601 5600 5600 5599 5599 5598 5597 5597 5596 5597 5597 5598
5625 5624 5623 5622 5620 5619 5618 5617 5616 5615 5613 5612 5611 5609 5608 5607 5605 5604 5602 5601 5599 5598 5597 5595 5594 5593 5592 5591 5590 5590 5589 5588 5588 5588 5587 5586 5586 5587
Wind_Speed
19 19 19 19 19 20 21 22 22 23 23 23 23 23 22 22 22 22 21 21 21 21 21 21 21 22 22 22 22 22 22 22 23 23 22 22 22 22
19 19 19 19 20 21 22 22 23 23 23 22 22 22 22 22 22 22 22 23 22 22 22 22 22 22 22 22 22 22 23 23 23 23 23 23 23 22
19 19 20 20 21 22 23 23 23 23 23 23 23 23 23 22 23 23 23 23 22 22 22 22 22 22 22 23 23 23 22 23 23 23 23 24 23 23
21 21 21 21 22 23 23 23 23 23 24 24 24 23 22 22 22 22 23 22 22 22 23 23 23 23 23 23 24 23 23 23 23 22 23 23 24 23
22 23 22 22 22 23 24 24 24 25 25 25 24 24 23 22 22 22 21 21 21 20 20 21 22 23 23 23 23 24 24 24 24 23 24 24 24 24
22 22 22 22 23 24 24 24 24 25 25 25 25 24 24 23 22 21 21 21 20 20 19 20 21 22 23 23 23 24 24 24 24 24 24 25 25 25
23 23 23 23 24 24 24 25 25 25 25 25 25 24 23 22 21 21 20 19 19 19 19 19 21 21 21 22 22 23 24 24 24 24 24 25 25 25
25 25 25 25 26 25 25 25 25 25 24 24 23 22 22 21 21 20 19 18 18 18 19 19 19 20 21 21 22 22 23 24 24 25 26 26 26 25
26 26 25 25 25 25 24 24 24 24 23 22 22 21 21 20 20 19 18 19 18 18 18 19 19 19 21 22 22 22 23 24 24 25 26 26 27 26
26 26 25 25 24 24 24 23 23 22 22 22 22 21 20 20 19 19 20 20 20 20 19 20 20 21 22 22 23 23 24 24 24 25 25 26 26 26
26 26 25 24 23 23 22 22 21 21 21 21 21 20 21 21 20 20 21 21 21 21 21 21 22 22 22 23 24 25 25 25 26 25 26 26 26 26
25 24 23 22 22 22 21 21 21 21 21 21 21 22 22 21 21 22 22 22 22 23 23 22 22 23 23 24 25 25 25 26 26 26 26 27 27 27
25 23 22 22 22 21 21 21 22 21 21 22 22 23 23 23 23 23 23 23 23 23 24 24 24 24 25 25 26 26 26 27 26 26 27 27 27 27
24 22 21 21 22 21 21 22 22 22 22 22 23 24 23 23 23 23 24 24 24 24 24 24 25 25 26 26 26 26 27 27 27 27 27 28 28 28
24 23 22 22 21 21 21 21 22 22 22 22 24 24 24 23 23 23 24 25 25 25 26 26 26 26 26 26 26 26 26 27 27 27 28 28 29 29
24 24 23 23 22 22 22 23 24 23 23 23 24 24 24 24 24 24 24 24 25 25 26 26 26 27 27 27 27 27 27 27 27 27 28 28 29 29
25 25 25 23 23 23 23 23 24 24 24 24 23 23 23 23 24 24 24 25 25 26 26 26 27 27 28 28 28 28 28 28 28 29 29 28 29 29
25 25 25 24 23 23 24 23 23 24 24 24 23 23 23 23 24 24 24 25 25 26 26 27 27 27 27 27 28 28 28 29 29 29 29 30 30 30
24 24 24 24 24 24 24 24 24 24 25 24 24 23 23 24 24 24 25 25 26 26 27 27 27 27 27 27 27 27 28 28 29 29 30 30 30 31
24 24 24 24 24 24 24 24 24 24 24 24 23 23 24 24 25 25 26 26 26 26 27 27 27 27 27 27 28 28 28 29 29 30 30 31 31 32
24 24 24 24 25 25 25 25 24 23 23 23 24 24 24 25 26 26 26 26 26 26 27 27 27 26 27 27 27 28 28 29 29 30 30 31 32 33
24 24 24 25 25 26 25 25 25 24 23 24 24 25 25 25 26 26 27 27 27 27 27 27 27 27 27 27 28 28 28 29 29 30 31 32 32 33
25 25 25 25 26 26 26 25 25 25 25 25 25 26 26 27 27 28 28 28 28 28 28 27 27 27 27 27 27 28 29 29 29 29 30 31 32 32
Wind_Direction
284 284 283 283 283 283 282 281 280 279 278 279 281 281 278 277 280 275 272 271 269 265 261 261 262 260 257 256 255 256 256 254 255 255 253 255 256 257
286 285 284 283 284 284 283 282 281 279 279 279 281 282 279 276 278 274 272 270 267 265 262 260 260 260 256 253 253 254 254 254 255 254 253 256 256 257
287 286 285 285 285 285 284 283 282 280 280 280 282 282 280 279 278 276 273 270 268 266 264 262 260 260 257 253 252 251 252 253 254 254 254 256 255 256
287 289 289 288 286 285 285 284 282 281 282 282 282 282 281 279 277 275 272 269 268 268 264 263 261 261 258 253 252 252 253 252 254 256 257 255 255 255
289 290 290 288 287 287 286 285 283 282 283 284 283 280 279 278 276 274 272 271 268 267 266 264 262 259 258 255 254 253 252 253 255 255 256 255 254 255
289 291 291 290 288 287 286 286 286 285 284 282 282 280 278 278 275 273 271 271 268 266 265 263 262 260 258 257 256 254 253 252 253 253 255 255 255 255
289 291 291 289 289 289 287 285 285 285 283 282 279 278 276 275 273 271 270 271 269 265 263 264 262 261 260 257 257 256 254 252 252 254 256 256 256 255
288 290 290 288 288 289 289 288 284 284 283 282 279 275 273 272 271 270 270 271 269 264 263 264 264 262 259 257 257 257 255 253 253 255 256 257 257 256
287 289 289 289 288 288 288 288 286 283 281 279 278 275 274 272 270 269 270 270 268 267 265 263 263 262 261 260 259 259 258 256 256 257 257 256 257 257
290 288 288 290 289 289 289 288 287 284 279 277 277 274 274 272 271 270 270 267 265 266 267 264 263 264 264 264 262 261 259 258 258 260 258 257 258 259
288 288 288 288 288 288 287 286 285 281 279 276 276 276 276 274 272 271 270 268 266 266 266 266 265 266 266 265 264 263 262 261 259 260 260 259 259 258
287 287 288 288 289 288 286 285 284 281 280 278 279 278 276 275 274 271 269 268 267 266 266 267 266 266 266 265 266 264 264 263 260 259 260 259 259 259
286 285 284 285 287 286 283 282 282 280 280 279 278 278 279 278 276 275 272 268 267 268 268 268 268 268 269 267 266 265 265 264 261 260 261 259 258 258
284 283 283 285 285 284 282 280 280 278 278 278 277 277 278 277 275 274 273 270 268 270 271 271 270 270 270 269 266 265 265 264 263 261 260 259 258 258
282 281 282 282 282 283 282 281 280 279 278 279 279 278 278 277 275 272 271 270 270 272 274 274 273 271 269 269 266 266 265 264 262 262 261 260 260 260
282 282 282 281 280 281 282 281 281 280 279 280 280 279 277 276 275 273 272 272 272 274 276 276 275 274 271 270 269 267 266 265 263 261 262 259 259 259
281 282 281 280 280 280 282 283 282 281 281 281 281 280 278 277 277 276 275 274 274 274 276 275 275 274 273 272 271 268 266 266 265 261 261 261 258 258
281 281 280 279 279 280 282 283 281 279 279 279 279 280 279 278 278 277 277 276 276 276 276 275 274 273 273 272 269 269 269 268 265 262 260 261 260 260
281 282 281 280 280 281 281 281 281 281 280 279 279 279 279 279 279 278 278 278 278 277 277 276 275 274 274 273 271 268 268 268 267 264 261 261 260 260
281 282 281 280 280 281 281 281 281 282 281 279 279 279 280 280 280 279 280 281 280 278 277 277 276 275 274 273 271 271 270 269 267 266 264 263 261 260
281 282 281 280 280 281 281 281 281 282 282 280 279 279 280 281 282 281 282 282 281 280 278 277 276 275 275 274 273 272 271 270 269 266 265 263 262 262
280 282 282 281 281 282 281 281 281 281 281 280 279 280 280 282 282 282 282 282 281 281 281 278 276 277 277 276 275 273 273 272 271 269 268 265 264 263
279 280 281 281 281 280 280 279 280 280 279 279 279 280 281 282 283 284 283 282 281 281 280 279 278 278 277 277 276 274 273 273 273 272 271 269 266 264